Weather History for Park Rapids, MN

Change the Weather History Date:

Thursday, May 29, 2014

  Actual Average Record
Temperature  
Mean Temperature 70 °F -  
Max Temperature 86 °F 72 °F 88 °F (2010)
Min Temperature 55 °F 48 °F 29 °F (1984)
Cooling Degree Days 4    
Growing Degree Days 20 (Base 50)    
Moisture  
Dew Point 46 °F    
Average Humidity 42    
Maximum Humidity 72    
Minimum Humidity 22    
Precipitation  
Precipitation 0.00 in - - ()
Sea Level Pressure  
Sea Level Pressure 30.07 in    
Wind  
Wind Speed 7 mph (SSE)    
Max Wind Speed 16 mph    
Max Gust Speed 23 mph    
Visibility 10 miles    
Events      
Averages and records for this station are not official NWS values.
T = Trace of Precipitation, MM = Missing Value Source: NWS Daily Summary

Daily Weather History Graph

Daily Weather History Graph

Search for Another Location

Airport:

Trip Planner

Search our weather history database for the weather conditions in past years. The results will help you decide how hot, cold, wet, or windy it might be!

Date:

Astronomy

May. 29, 2014 Rise Set
Actual Time 5:31 AM CDT 9:04 PM CDT
Civil Twilight 4:53 AM CDT 9:42 PM CDT
Nautical Twilight 4:02 AM CDT 10:33 PM CDT
Astronomical Twilight 2:55 AM CDT 11:41 PM CDT
Moon 6:29 AM CDT (5/29) 9:51 PM CDT (5/29)
Length of Visible Light 16h 49m
Length of Day
15h 32m
New Moon, 1% of the Moon is Illuminated
May 29
New Moon
Jun 5
First Quarter
Jun 12
Full
Jun 19
Last Quarter
Jun 27
New

Hourly Weather History & Observations

Time (CDT) Temp. Dew Point Humidity Pressure Visibility Wind Dir Wind Speed Gust Speed Precip Events Conditions
12:53 AM 64.4 °F 42.8 °F 45% 30.09 in 10.0 mi SE 6.9 mph - N/A   Clear
1:53 AM 63.0 °F 44.1 °F 50% 30.09 in 10.0 mi SE 3.5 mph - N/A   Clear
2:53 AM 60.8 °F 46.4 °F 59% 30.11 in 10.0 mi ESE 3.5 mph - N/A   Clear
3:53 AM 57.9 °F 46.0 °F 65% 30.11 in 10.0 mi Calm Calm - N/A   Clear
4:53 AM 57.0 °F 46.9 °F 69% 30.10 in 10.0 mi ESE 5.8 mph - N/A   Clear
5:53 AM 55.9 °F 46.9 °F 72% 30.10 in 10.0 mi ESE 4.6 mph - N/A   Clear
6:53 AM 57.9 °F 45.0 °F 62% 30.09 in 10.0 mi SE 4.6 mph - N/A   Clear
7:53 AM 61.0 °F 44.1 °F 54% 30.12 in 10.0 mi SSE 8.1 mph - N/A   Clear
8:53 AM 66.9 °F 46.9 °F 49% 30.11 in 10.0 mi South 5.8 mph - N/A   Clear
9:53 AM 73.0 °F 51.1 °F 46% 30.11 in 10.0 mi South 6.9 mph - N/A   Clear
10:53 AM 77.0 °F 52.0 °F 42% 30.10 in 10.0 mi SSE 11.5 mph - N/A   Clear
11:53 AM 80.1 °F 48.9 °F 34% 30.10 in 10.0 mi South 11.5 mph 21.9 mph N/A   Clear
12:53 PM 82.0 °F 44.1 °F 26% 30.08 in 10.0 mi SE 12.7 mph 23.0 mph N/A   Clear
1:53 PM 82.9 °F 45.0 °F 26% 30.07 in 10.0 mi South 10.4 mph 19.6 mph N/A   Clear
2:53 PM 84.0 °F 42.1 °F 23% 30.05 in 10.0 mi South 16.1 mph - N/A   Clear
3:53 PM 84.9 °F 43.0 °F 23% 30.04 in 10.0 mi South 16.1 mph 19.6 mph N/A   Clear
4:53 PM 84.2 °F 41.0 °F 22% 30.05 in 10.0 mi South 12.7 mph 20.7 mph N/A   Clear
5:53 PM 84.0 °F 41.0 °F 22% 30.03 in 10.0 mi South 15.0 mph - N/A   Clear
6:53 PM 82.9 °F 43.0 °F 24% 30.02 in 10.0 mi South 11.5 mph - N/A   Clear
7:53 PM 80.1 °F 44.1 °F 28% 30.03 in 10.0 mi South 10.4 mph - N/A   Clear
8:53 PM 75.0 °F 46.0 °F 36% 30.02 in 10.0 mi SE 6.9 mph - N/A   Clear
9:53 PM 71.1 °F 46.9 °F 42% 30.04 in 10.0 mi SE 6.9 mph - N/A   Clear
10:53 PM 70.0 °F 46.9 °F 44% 30.04 in 10.0 mi SE 8.1 mph - N/A   Clear
11:53 PM 66.9 °F 48.0 °F 51% 30.02 in 10.0 mi SE 9.2 mph - N/A   Clear